San Bernardino, CA

12:59 PM PST on December 11, 2019 (GMT -0800)
San Bernardino International

Weather History for KSBD - May, 2019

Change the Weather History Date:

Thursday, May 9, 2019

  Actual Average Record
Temperature  
Mean Temperature 62 °F -  
Max Temperature 66 °F 79 °F 93 °F (2012)
Min Temperature 57 °F 51 °F 48 °F (2011)
Degree Days  
Heating Degree Days 4    
Growing Degree Days 12 (Base 50)    
Moisture  
Dew Point 50 °F    
Average Humidity 69    
Maximum Humidity 77    
Minimum Humidity 52    
Precipitation  
Precipitation 0.00 in - - ()
Sea Level Pressure  
Sea Level Pressure 29.86 in    
Wind  
Wind Speed 4 mph (WSW)    
Max Wind Speed 10 mph    
Max Gust Speed -    
Visibility 8 miles    
Events Rain    
Averages and records for this station are not official NWS values.
T = Trace of Precipitation, MM = Missing Value Source: NWS Daily Summary

Daily Weather History Graph

Daily Weather History Graph

Search for Another Location

Airport or City:

Astronomy

May. 09, 2019 Rise Set
Actual Time 5:52 AM PDT 7:39 PM PDT
Civil Twilight 5:24 AM PDT 8:06 PM PDT
Nautical Twilight 4:52 AM PDT 8:39 PM PDT
Astronomical Twilight 4:17 AM PDT 9:14 PM PDT
Moon 9:56 AM PDT (5/9) No Moon Set
Length of Visible Light 14h 41m
Length of Day
13h 46m
Waxing Crescent, 26% of the Moon is Illuminated
May 9
Waxing Crescent
May 11
First Quarter
May 18
Full
May 26
Last Quarter
Jun 3
New

Hourly Weather History & Observations

Time (PDT) Temp. Dew Point Humidity Pressure Visibility Wind Dir Wind Speed Gust Speed Precip Events Conditions
12:01 AM 59.5 °F 50.0 °F 71% 29.93 in 10.0 mi WSW 4.6 mph - N/A   Overcast
12:20 AM 59.4 °F 50.0 °F 71% 29.92 in 10.0 mi WSW 4.6 mph - N/A   Overcast
12:40 AM 59.4 °F 50.0 °F 71% 29.92 in 10.0 mi West 4.6 mph - N/A   Overcast
1:00 AM 59.4 °F 50.0 °F 71% 29.92 in 10.0 mi WSW 3.5 mph - N/A   Overcast
1:20 AM 59.2 °F 50.2 °F 72% 29.92 in 10.0 mi WSW 5.8 mph - N/A   Overcast
1:40 AM 59.0 °F 50.0 °F 72% 29.91 in 10.0 mi WSW 5.8 mph - N/A   Overcast
2:00 AM 59.0 °F 50.2 °F 73% 29.91 in 10.0 mi WSW 4.6 mph - N/A   Overcast
2:20 AM 58.6 °F 50.2 °F 73% 29.91 in 10.0 mi West 3.5 mph - N/A   Overcast
2:40 AM 58.5 °F 50.0 °F 73% 29.90 in 10.0 mi Calm Calm - N/A   Overcast
3:00 AM 58.3 °F 50.0 °F 74% 29.89 in 10.0 mi West 3.5 mph - N/A   Overcast
3:20 AM 58.5 °F 50.2 °F 74% 29.89 in 10.0 mi West 4.6 mph - N/A   Overcast
3:40 AM 58.3 °F 50.0 °F 74% 29.88 in 10.0 mi WSW 3.5 mph - N/A   Overcast
4:00 AM 58.3 °F 50.0 °F 74% 29.88 in 10.0 mi West 3.5 mph - N/A   Overcast
4:20 AM 58.3 °F 50.2 °F 74% 29.87 in 10.0 mi WSW 3.5 mph - N/A   Overcast
4:40 AM 58.3 °F 50.2 °F 74% 29.87 in 10.0 mi WSW 3.5 mph - N/A   Overcast
5:00 AM 58.1 °F 50.2 °F 75% 29.87 in 10.0 mi WSW 3.5 mph - N/A   Overcast
5:20 AM 58.1 °F 50.2 °F 75% 29.87 in 10.0 mi West 3.5 mph - N/A   Overcast
5:40 AM 58.1 °F 50.2 °F 75% 29.86 in 10.0 mi WSW 4.6 mph - N/A   Overcast
7:00 AM 57.2 °F 50.0 °F 77% 29.87 in 3.0 mi WSW 3.5 mph - N/A   Overcast
7:49 AM 59.0 °F 50.0 °F 72% 29.87 in 3.0 mi WSW 3.5 mph - N/A   Overcast
8:45 AM 59.0 °F 50.0 °F 72% 29.87 in 3.0 mi SW 3.5 mph - N/A   Haze
10:48 AM 59.0 °F 50.0 °F 72% 29.87 in 3.0 mi Calm Calm - N/A   Haze
11:48 AM 62.6 °F 50.0 °F 63% 29.85 in 3.0 mi Calm Calm - N/A   Haze
12:49 PM 64.4 °F 50.0 °F 59% 29.83 in 3.0 mi WSW 3.5 mph - N/A   Haze
1:50 PM 64.4 °F 48.2 °F 56% 29.82 in 3.0 mi Calm Calm - N/A   Haze
2:48 PM 64.4 °F 50.0 °F 59% 29.81 in 3.0 mi Calm Calm - N/A   Haze
3:50 PM 66.2 °F 48.2 °F 52% 29.78 in 3.0 mi Calm Calm - N/A   Haze
4:50 PM 66.2 °F 48.2 °F 52% 29.77 in 3.0 mi Calm Calm - N/A   Haze
5:50 PM 66.2 °F 48.2 °F 52% 29.76 in - WSW 8.1 mph - N/A   Haze
6:50 PM 64.4 °F 50.0 °F 59% 29.77 in 4.0 mi WSW 8.1 mph - N/A   Haze
7:50 PM 60.8 °F 50.0 °F 68% 29.79 in 4.0 mi WSW 10.4 mph - N/A   Haze
8:50 PM 60.8 °F 50.0 °F 68% 29.87 in 4.0 mi WSW 8.1 mph - N/A   Haze
9:40 PM 60.4 °F 50.2 °F 69% 29.82 in 10.0 mi West 6.9 mph - N/A   Overcast
10:00 PM 60.3 °F 50.0 °F 69% 29.82 in 10.0 mi West 8.1 mph - N/A   Overcast
10:20 PM 59.9 °F 50.0 °F 70% 29.82 in 10.0 mi West 6.9 mph - N/A   Overcast
10:40 PM 59.4 °F 49.6 °F 70% 29.83 in 10.0 mi West 5.8 mph - N/A   Overcast
11:00 PM 59.2 °F 50.0 °F 72% 29.83 in 10.0 mi WSW 4.6 mph - N/A   Overcast
11:20 PM 58.3 °F 50.2 °F 74% 29.84 in 10.0 mi West 4.6 mph - N/A Rain Light Rain
11:40 PM 58.5 °F 50.7 °F 75% 29.84 in 7.0 mi Calm Calm - N/A   Overcast